www.pogodaiklimat.ru

Погода и климат >> Архив погоды >> Россия >> Ставропольский край >> Минеральные Воды


АРХИВ ПОГОДЫ в Минеральных Водах

Время (UTC), дата Ветер
(напр.,м/с)
 
Видим.   Явления Облачность Т
(С)
Тd
(С)
f
(%)
Тe
(С)
Тes
(С)
Комфортность P
(гПа)
Po
(гПа)
Тmin
(С)
Tmax
(С)
R
(мм)
R24
(мм)
S
(см)
18 12.09 В 2 10 км ясно +21.8 +14.5 63 +25 +25 комфорт 1014.8 987.8
21 12.09 СВ 1 10 км ясно +18.2 +12.8 71 +20 +20 тепло 1015.8 978.7
00 13.09 СВ 2 10 км ясно +16.2 +12.3 78 +16 +16 тепло 1015.3 978.4
03 13.09 штиль 0 20 км ясно +12.7 +11.0 89 +12 +12 по сезону 1015.7 978.4 +12.7
06 13.09 СВ 2 20 км ясно +19.5 +14.9 75 +22 +28 комфорт 1015.1 978.7 +12.7
09 13.09 В 1 20 км ясно +28.0 +15.0 45 +31 +45 душно 1012.8 977.5
12 13.09 С 1 20 км ясно +33.0 +11.0 26 +33 +40 жарко 1011.0 976.3
15 13.09 СВ 2 20 км ясно +28.9 +11.3 34 +30 +30 жарко 1011.4 976.2 +33.5
18 13.09 штиль 0 10 км ясно +22.5 +12.7 54 +25 +25 комфорт 1012.6 976.7
21 13.09 штиль 0 10 км ясно +16.0 +10.2 68 +16 +16 тепло 1013.6 976.8
00 14.09 З 2 10 км ясно +15.9 +8.5 61 +16 +16 тепло 1014.4 977.5
03 14.09 З 1 20 км ясно +16.1 +9.9 67 +17 +17 тепло 1016.1 979.2 +15.4
06 14.09 З 4-10
{11}
20 км ясно +26.0 +12.1 42 +27 +31 жарко 1016.3 980.6
09 14.09 З 3
{10}
20 км ясно +30.8 +10.3 28 +31 +41 жарко 1015.6 980.5
12 14.09 З 3 20 км ясно +31.9 +8.5 23 +31 +36 жарко 1015.2 980.2
15 14.09 З 1 20 км ясно +27.6 +9.9 33 +28 +28 жарко 1015.7 980.2 +32.4
18 14.09 штиль 0 10 км ясно +20.3 +11.5 57 +22 +22 комфорт 1017.3 980.9
21 14.09 штиль 0 10 км ясно +16.3 +11.5 73 +16 +16 тепло 1017.7 980.8
00 15.09 В 1 10 км ясно +14.5 +11.4 82 +15 +15 тепло 1017.6 980.5
03 15.09 В 2 20 км ясно +16.7 +10.6 67 +17 +17 тепло 1017.2 980.3 +14.3
06 15.09 В 2 20 км ясно +25.1 +9.4 37 +26 +31 жарко 1015.5 979.7
09 15.09 В 5
{10}
20 км ясно +31.0 +12.0 31 +31 +38 жарко 1013.0 978.0
12 15.09 В 3
{11}
20 км ясно +32.9 +11.3 27 +33 +38 жарко 1011.6 976.9
15 15.09 ЮВ 2 20 км ясно +29.8 +12.0 33 +30 +30 жарко 1011.7 976.6 +33.3
18 15.09 СВ 1 10 км ясно +21.5 +13.9 62 +24 +24 комфорт 1013.5 977.4
21 15.09 СВ 2 10 км ясно +19.9 +13.3 66 +22 +22 комфорт 1014.2 977.9
00 16.09 З 1 10 км ясно +16.0 +11.9 77 +17 +17 тепло 1015.8 978.9
03 16.09 З 1 20 км ясно +13.8 +11.0 83 +14 +14 по сезону 1017.6 980.3 +13.6
06 16.09 З 2 20 км ясно +26.3 +12.5 42 +28 +33 жарко 1017.0 981.3
09 16.09 С 1 20 км ясно +32.0 +10.8 27 +32 +45 жарко 1015.7 980.7
12 16.09 В 2 20 км ясно +34.2 +8.6 21 +33 +39 жарко 1014.7 979.9
15 16.09 СВ 1 20 км ясно +28.5 +10.8 33 +29 +29 жарко 1015.7 980.3 +34.3
18 16.09 В 1 10 км ясно +21.4 +13.3 60 +24 +24 комфорт 1017.5 981.3
21 16.09 ЮЗ 1 10 км ясно +17.5 +13.1 75 +19 +19 тепло 1017.8 981.0
00 17.09 штиль 0 10 км ясно +14.8 +11.7 82 +15 +15 тепло 1018.2 981.1
03 17.09 штиль 0 20 км ясно +13.4 +11.3 87 +13 +13 по сезону 1019.2 981.8 +13.2
06 17.09 СВ 2 20 км ясно +21.8 +15.4 67 +25 +31 комфорт 1018.8 982.5
09 17.09 СВ 4 20 км ясно +26.6 +17.8 58 +31 +39 душно 1017.1 981.5
12 17.09 СВ 4 20 км ясно +31.2 +15.8 39 +34 +38 душно 1015.0 980.0
15 17.09 В 3 20 км ясно +29.1 +13.2 38 +31 +31 жарко 1014.6 979.4 +31.7
18 17.09 В 3 10 км ясно +24.6 +9.0 37 +25 +25 комфорт 1015.6 979.8
21 17.09 штиль 0 10 км ясно +18.0 +8.3 53 +18 +18 тепло 1016.3 979.6
00 18.09 В 2 10 км ясно +15.5 +8.7 64 +15 +15 тепло 1015.8 978.8
03 18.09 В 1 20 км ясно +14.4 +9.9 74 +15 +15 тепло 1016.2 979.0 +14.4
06 18.09 СВ 2 20 км 10/10 600 м
[Sc]
+18.6 +15.2 81 +20 +20 тепло 1015.7 979.2 +14.4
09 18.09 СВ 2 20 км ясно +26.5 +15.4 51 +30 +41 душно 1013.3 977.8
12 18.09 СВ 3 20 км ясно +31.5 +12.5 31 +32 +37 жарко 1011.3 976.4
15 18.09 ЮВ 1 20 км ясно +27.1 +13.3 43 +29 +29 жарко 1011.6 976.2 +31.6
18 18.09 В 1 10 км 10/10 600 м
[Sc]
+20.2 +14.1 68 +24 +24 комфорт 1013.0 976.8
21 18.09 З 1 10 км 8/8 600 м
[Sc]
+17.9 +12.4 70 +19 +19 тепло 1013.4 976.8
00 19.09 З 1 10 км 5/5 600 м
[Sc]
+15.6 +12.3 81 +16 +16 тепло 1013.9 977.1
03 19.09 штиль 0 20 км ясно +14.1 +12.2 88 +14 +14 по сезону 1014.6 977.5 +14.1
06 19.09 З 1 20 км ясно +25.3 +13.8 49 +28 +34 жарко 1013.7 978.1 +14.1
09 19.09 З 2 20 км ясно +32.6 +12.7 30 +33 +44 жарко 1012.0 977.2
12 19.09 З 1 20 км ясно +35.0 +9.4 21 +34 +41 очень
жарко
1010.8 976.3

 

Местоположение метеостанции Минеральные Воды (Ставропольский край, Россия): широта 44.22 долгота 43.10 высота над уровнем моря 313 м.

В архиве по умолчанию представлена погода в Минеральных Водах за последнюю неделю. Архивные данные за месяц целиком и за предыдущие месяцы, начиная с января 2011 года, Вы можете получить, выбрав интересующий диапазон дат из раскрывающегося списка и нажав кнопку "Ввод!".

Внимание! Время в таблицах - всемирное. Для получения местного времени необходимо прибавить поправку, которая в Минеральных Водах равна 3 ч.

Смотрите также архив погоды в соседних городах и на ближайших метеорологических станциях:

Погода в Георгиевске (Ставропольский край, Россия) (30 км)
Погода в Кисловодске (Ставропольский край, Россия) (47 км)
Погода в Александровском (Ставропольский край, Россия) (56 км)
Погода в Шаджатмазе (Карачаево-Черкессия, Россия) (64 км)
Погода в Зеленокумске (Ставропольский край, Россия) (66 км)
Погода в Черкесске (Карачаево-Черкессия, Россия) (82 км)
Погода в Нальчике (Кабардино-Балкария, Россия) (88 км)
Погода в Прохладный (Кабардино-Балкария, Россия) (92 км)
Погода в Невинномысске (Ставропольский край, Россия) (101 км)
Погода в Благодарном (Ставропольский край, Россия) (102 км)

Пояснения к столбцам:

Ветер - указаны скорость ветра в м/с - средняя за 10 мин, порывы в срок и между сроками (в фигурных скобках) и направление, откуда дует ветер: С - северный, СВ - северо-восточный, В - восточный, ЮВ - юго-восточный, Ю - южный, ЮЗ - юго-западный, З - западный, СЗ - северо-западный.
Видимость - горизонтальная дальность видимости в метрах или километрах. При видимости от 1 до 10 км при отсутствии осадков обычно наблюдается дымка, при ухудшении видимости до 1 км и менее - туман. В сухую погоду видимость может ухудшаться дымом, пылью или мглою.
Явления - указаны атмосферные явления, наблюдавшиеся в срок или в последний час перед сроком; фигурными скобками обозначены явления, наблюдавшиеся между сроками (за 1-3 часа до срока); квадратными скобками обозначены град или гололедные отложения с указанием их диаметра в мм.
Облачность - указаны через наклонную черту общая и нижняя облачность в баллах и высота нижней границы облаков в метрах; квадратными скобками обозначены формы облаков: Ci - перистые, Cs - перисто-слоистые, Cc - перисто-кучевые, Ac - высококучевые, As - высокослоистые, Sc - слоисто-кучевые, Ns - слоисто-дождевые, Cu - кучевые, Cb - кучево-дождевые. Подробнее классификацию облаков см. в Атласе облаков (PDF).
T - Температура воздуха - температура, измеренная на высоте 2 м над землей.
Td - Температура точки росы - температура, при понижении до которой содержащийся в воздухе водяной пар достигнет насыщения.
f - Относительная влажность воздуха - влажноcть воздуха, измеренная на высоте 2 м над землей.
Te - Эффективная температура - температура, которую ощущает одетый по сезону человек в тени. Характеристика душности погоды. При расчете учитывается влияние влажности воздуха и скорости ветра на теплоощущения человека.
Tes - Эффективная температура на солнце - температура, которую ощущает человек, с поправкой на солнечный нагрев. Характеристика знойности погоды. Зависит от высоты солнца над горизонтом, облачности и скорости ветра. Ночью, в пасмурную погоду, а также при ветре 12 м/с и более поправка равна нулю.
P - Атмосферное давление - приведенное к уровню моря атмосферное давление.
Po - Атмосферное давление - измеренное на уровне метеостанции атмосферное давление.
Tmin - Минимальная температура - минимум температуры воздуха на высоте 2 м над землей.
Tmax - Максимальная температура - максимум температуры воздуха на высоте 2 м над землей.
R - Количество осадков - Количество выпавших осадков за период времени, мм. При наведении курсора мыши на число - период времени, за который выпало указанное количество осадков.
R24 - Количество осадков - Количество выпавших осадков за 24 часа, мм.
S - Снежный покров - Высота снежного покрова, см. При наведении курсора мыши на число - состояние снежного покрова и степень покрытия местности в баллах.